Location: Unnamed
(47.6264°N, 122.3366°W)
Time: 13:22:58
(UTC-07:00)

UPPER FREE FLYER - Pass Details

Date: 07 August 2020
Orbit: 571 x 589 km, 97.7° (Epoch: 01 October)

Event Time Altitude Azimuth Distance (km) Brightness Sun altitude
Exits shadow 22:05:18 20° 109° (ESE) 1,365 ? -13.6°
Maximum altitude 22:07:10 28° 67° (ENE) 1,089 ? -13.8°
Drops below altitude 10° 22:10:42 10° 8° (N) 1,896 ? -14.2°
Sets 22:13:04 0° 357° (N) 2,802 ? -14.5°
